GW6418 Weather Reports


Display with metric or nautical units.
time (UTC)temp
F
wind
direction
speed
MPH
gust
MPH
rain 1hr
in
rain 24hr
in
rain mn
in
humidity
%
barometer
mb
20260510204517 88 292 5.0 12.0 0.00 0.15 0.15 59 1015.7
20260510204003 88 261 6.0 12.0 0.00 0.15 0.15 60 1015.7
20260510203502 88 326 8.0 11.0 0.00 0.15 0.15 58 1015.8
20260510203008 88 301 6.0 10.0 0.00 0.15 0.15 58 1015.7
20260510202502 88 262 6.0 11.0 0.00 0.15 0.15 57 1015.6
20260510202003 88 344 6.0 13.0 0.00 0.15 0.15 56 1015.6
20260510201503 89 305 9.0 13.0 0.00 0.15 0.15 56 1015.7
20260510201008 89 11 6.0 14.0 0.00 0.15 0.15 54 1015.5
20260510200503 90 346 7.0 14.0 0.00 0.15 0.15 54 1015.6
20260510200016 90 265 9.0 14.0 0.00 0.15 0.15 52 1015.7
20260510195502 90 307 5.0 12.0 0.00 0.15 0.15 53 1015.8
20260510195002 90 277 5.0 15.0 0.00 0.15 0.15 56 1015.6
20260510194510 90 270 6.0 15.0 0.00 0.15 0.15 54 1015.6
20260510194007 90 339 8.0 15.0 0.00 0.15 0.15 53 1015.6
20260510193503 90 249 7.0 12.0 0.00 0.15 0.15 53 1015.7
20260510193011 91 221 6.0 12.0 0.00 0.15 0.15 54 1015.7
20260510192506 91 204 6.0 14.0 0.00 0.15 0.15 56 1015.6
20260510192007 90 221 6.0 14.0 0.00 0.15 0.15 56 1015.7
20260510191515 90 267 7.0 13.0 0.00 0.15 0.15 56 1015.7
20260510191004 91 293 5.0 11.0 0.00 0.15 0.15 56 1015.7
20260510190503 91 261 3.0 12.0 0.00 0.15 0.15 57 1015.6
20260510190009 91 263 6.0 12.0 0.00 0.15 0.15 58 1015.7
20260510185503 90 319 7.0 13.0 0.00 0.15 0.15 57 1015.6
20260510185003 90 275 6.0 13.0 0.00 0.15 0.15 59 1015.8
20260510184512 90 231 6.0 12.0 0.00 0.15 0.15 57 1015.7
20260510184003 91 221 5.0 12.0 0.00 0.15 0.15 57 1015.7
20260510183503 91 291 7.0 13.0 0.00 0.15 0.15 57 1015.8
20260510183010 90 223 7.0 13.0 0.00 0.15 0.15 59 1015.8
20260510182503 90 212 7.0 11.0 0.00 0.15 0.15 58 1016.0
20260510182006 90 218 6.0 13.0 0.00 0.15 0.15 57 1015.9
20260510181514 91 180 7.0 13.0 0.00 0.15 0.15 56 1015.9
20260510181004 91 215 6.0 13.0 0.00 0.15 0.15 57 1016.0
20260510180504 90 215 6.0 13.0 0.00 0.15 0.15 57 1016.2
20260510180014 90 241 5.0 14.0 0.00 0.15 0.15 60 1016.3
20260510175503 90 218 7.0 14.0 0.00 0.15 0.15 59 1016.2
20260510175006 90 225 7.0 12.0 0.00 0.15 0.15 59 1016.3
20260510174507 90 230 6.0 10.0 0.00 0.15 0.15 58 1016.3
20260510174003 90 220 5.0 12.0 0.00 0.15 0.15 59 1016.4
20260510173504 90 212 4.0 12.0 0.00 0.15 0.15 58 1016.4
20260510173016 90 215 7.0 11.0 0.00 0.15 0.15 58 1016.6
20260510172503 90 229 4.0 12.0 0.00 0.15 0.15 58 1016.6
20260510172003 90 224 7.0 14.0 0.00 0.15 0.15 56 1016.7
20260510171514 90 220 5.0 14.0 0.00 0.15 0.15 57 1016.7
20260510171003 90 213 6.0 12.0 0.00 0.15 0.15 60 1016.7
20260510170506 89 213 3.0 7.0 0.00 0.15 0.15 60 1016.9
20260510170015 90 258 3.0 9.0 0.00 0.15 0.15 60 1016.9
20260510165507 89 208 5.0 12.0 0.00 0.15 0.15 59 1017.1
20260510165008 89 287 4.0 12.0 0.00 0.15 0.15 61 1017.1
20260510164516 89 232 5.0 12.0 0.00 0.15 0.15 59 1017.1
20260510164005 89 216 6.0 10.0 0.00 0.15 0.15 59 1017.1
20260510163508 89 228 6.0 10.0 0.00 0.15 0.15 60 1017.0
20260510163008 88 277 4.0 9.0 0.00 0.15 0.15 63 1017.1
20260510162503 88 240 5.0 10.0 0.00 0.15 0.15 64 1017.3
20260510162005 88 211 2.0 10.0 0.00 0.15 0.15 62 1017.2
20260510161512 88 208 4.0 8.0 0.00 0.15 0.15 63 1017.2
20260510161009 87 208 3.0 8.0 0.00 0.15 0.15 64 1017.3
20260510160507 88 289 4.0 10.0 0.00 0.15 0.15 61 1017.3
20260510160017 88 216 4.0 10.0 0.00 0.15 0.15 61 1017.3
20260510155513 88 220 6.0 13.0 0.00 0.15 0.15 61 1017.3
20260510155010 87 219 5.0 13.0 0.00 0.15 0.15 63 1017.3
20260510154516 87 223 5.0 9.0 0.00 0.15 0.15 63 1017.3
20260510154006 87 209 2.0 12.0 0.00 0.15 0.15 64 1017.2
20260510153508 87 190 8.0 12.0 0.00 0.15 0.15 62 1017.2
20260510153014 87 204 4.0 9.0 0.00 0.15 0.15 63 1017.1
20260510152510 86 175 3.0 10.0 0.00 0.15 0.15 65 1017.1
20260510152007 86 182 7.0 10.0 0.00 0.15 0.15 67 1017.3
20260510151507 85 199 6.0 9.0 0.00 0.15 0.15 67 1017.3
20260510151002 85 215 4.0 10.0 0.00 0.15 0.15 67 1017.4
20260510150505 85 232 4.0 10.0 0.00 0.15 0.15 68 1017.4
20260510150012 85 203 6.0 10.0 0.00 0.15 0.15 65 1017.4
20260510145505 85 214 3.0 8.0 0.00 0.15 0.15 67 1017.4
20260510145003 85 210 4.0 8.0 0.00 0.15 0.15 67 1017.4
20260510144532 85 197 5.0 8.0 0.00 0.15 0.15 70 1017.4
20260510144014 84 218 4.0 8.0 0.00 0.15 0.15 70 1017.5
20260510143507 84 213 3.0 9.0 0.00 0.15 0.15 72 1017.4
20260510143019 83 186 5.0 9.0 0.00 0.15 0.15 73 1017.3
20260510142507 83 218 5.0 8.0 0.00 0.15 0.15 70 1017.3
20260510142006 83 214 4.0 8.0 0.00 0.15 0.15 73 1017.3
20260510141523 83 191 3.0 8.0 0.00 0.15 0.15 75 1017.3
20260510141008 82 218 4.0 6.0 0.00 0.15 0.15 74 1017.2
20260510140509 82 190 3.0 6.0 0.00 0.15 0.15 75 1017.1
20260510140020 81 195 2.0 9.0 0.00 0.15 0.15 79 1016.9
20260510135505 81 168 5.0 9.0 0.00 0.15 0.15 78 1017.0
20260510135003 81 194 3.0 6.0 0.00 0.15 0.15 79 1017.0
20260510134512 80 196 2.0 7.0 0.00 0.15 0.15 79 1016.9
20260510134002 80 199 3.0 9.0 0.00 0.15 0.15 80 1017.0
20260510133504 80 195 5.0 9.0 0.00 0.15 0.15 81 1016.8
20260510133004 79 193 4.0 8.0 0.00 0.15 0.15 81 1017.0
20260510132503 79 196 4.0 8.0 0.00 0.15 0.15 82 1016.8
20260510132002 78 177 2.0 5.0 0.00 0.15 0.15 84 1016.8
20260510131503 78 209 2.0 6.0 0.00 0.15 0.15 84 1016.6
20260510131004 78 210 2.0 6.0 0.00 0.15 0.15 85 1016.8
20260510130504 77 198 2.0 5.0 0.00 0.15 0.15 85 1016.7
20260510130008 77 198 2.0 4.0 0.00 0.15 0.15 87 1016.6
20260510125503 77 206 3.0 6.0 0.00 0.15 0.15 88 1016.6
20260510125006 76 185 4.0 6.0 0.00 0.15 0.15 88 1016.7
20260510124510 76 200 3.0 5.0 0.00 0.15 0.15 90 1016.7
20260510124006 75 206 2.0 4.0 0.00 0.15 0.15 91 1016.7
20260510123503 75 199 1.0 3.0 0.00 0.15 0.15 92 1016.5
20260510123017 75 199 1.0 3.0 0.00 0.15 0.15 92 1016.5
20260510122502 74 195 1.0 4.0 0.00 0.15 0.15 92 1016.3
20260510122002 74 193 2.0 4.0 0.00 0.15 0.15 93 1016.4
20260510121505 74 198 1.0 2.0 0.00 0.15 0.15 94 1016.4
20260510121004 74 190 0.0 1.0 0.00 0.15 0.15 94 1016.3
20260510120504 73 188 0.0 1.0 0.00 0.15 0.15 94 1016.2
20260510120007 73 188 0.0 1.0 0.00 0.15 0.15 94 1016.2
20260510115504 73 188 0.0 1.0 0.00 0.15 0.15 94 1016.1
20260510115004 72 188 0.0 1.0 0.00 0.15 0.15 95 1016.0
20260510114508 72 188 0.0 1.0 0.00 0.15 0.15 95 1016.0
20260510114004 72 188 0.0 1.0 0.00 0.15 0.15 95 1015.8
20260510113504 72 188 0.0 1.0 0.00 0.15 0.15 94 1015.7
20260510113013 72 188 0.0 1.0 0.00 0.15 0.15 94 1015.7
20260510112503 72 188 0.0 1.0 0.00 0.15 0.15 94 1015.5
20260510112006 72 188 0.0 1.0 0.00 0.15 0.15 94 1015.5
20260510111516 72 189 0.0 1.0 0.00 0.15 0.15 94 1015.5
20260510111007 72 188 0.0 0.0 0.00 0.15 0.15 94 1015.4
20260510110503 72 188 0.0 0.0 0.00 0.15 0.15 94 1015.2
20260510110005 72 189 0.0 1.0 0.00 0.15 0.15 94 1015.3
20260510105503 72 189 0.0 1.0 0.00 0.15 0.15 95 1015.2
20260510105002 71 188 0.0 0.0 0.00 0.15 0.15 94 1015.2
20260510104504 71 188 0.0 0.0 0.00 0.15 0.15 94 1015.0
20260510104006 71 189 0.0 1.0 0.00 0.15 0.15 94 1014.9
20260510103504 71 188 0.0 1.0 0.00 0.15 0.15 94 1014.7
20260510103008 71 189 0.0 1.0 0.00 0.15 0.15 94 1014.6
20260510102504 71 188 0.0 1.0 0.00 0.15 0.15 94 1014.4
20260510102006 71 188 0.0 1.0 0.00 0.15 0.15 94 1014.5
20260510101511 72 188 0.0 1.0 0.00 0.15 0.15 94 1014.4
20260510101003 72 189 0.0 1.0 0.00 0.15 0.15 94 1014.3
20260510100508 71 189 0.0 0.0 0.00 0.15 0.15 94 1014.2
20260510100018 72 188 0.0 1.0 0.00 0.15 0.15 94 1014.3
20260510095507 72 188 0.0 1.0 0.00 0.15 0.15 94 1014.3
20260510095004 72 188 0.0 1.0 0.00 0.15 0.15 94 1014.3
20260510094504 72 188 0.0 1.0 0.00 0.15 0.15 93 1014.2
20260510094001 72 188 0.0 1.0 0.00 0.15 0.15 94 1014.3
20260510093503 72 188 0.0 1.0 0.00 0.15 0.15 93 1014.2
20260510093004 72 188 0.0 1.0 0.00 0.15 0.15 93 1014.1
20260510092504 72 189 0.0 1.0 0.00 0.15 0.15 93 1014.1
20260510092004 72 189 0.0 1.0 0.00 0.15 0.15 93 1014.1
20260510091512 72 188 0.0 1.0 0.00 0.15 0.15 93 1014.1
20260510091003 72 188 0.0 1.0 0.00 0.15 0.15 93 1014.0
20260510090506 72 189 0.0 1.0 0.00 0.15 0.15 93 1013.9
20260510090017 72 188 0.0 1.0 0.00 0.15 0.15 93 1013.9
20260510085505 72 188 0.0 1.0 0.00 0.15 0.15 93 1013.8
20260510085008 73 188 0.0 1.0 0.00 0.15 0.15 93 1013.8
20260510084518 73 188 0.0 1.0 0.00 0.15 0.15 93 1013.7
20260510084007 73 188 0.0 1.0 0.00 0.15 0.15 93 1013.8
20260510083506 73 188 0.0 1.0 0.00 0.15 0.15 93 1013.8
20260510083003 73 188 0.0 1.0 0.00 0.15 0.15 93 1013.8
20260510082503 73 188 0.0 1.0 0.00 0.15 0.15 93 1013.7
20260510082002 73 188 0.0 2.0 0.00 0.15 0.15 93 1013.6
20260510081522 73 188 0.0 2.0 0.00 0.15 0.15 93 1013.6
20260510081004 73 188 0.0 2.0 0.00 0.15 0.15 93 1013.8
20260510080504 73 188 0.0 2.0 0.00 0.15 0.15 93 1013.9
20260510080012 73 187 0.0 1.0 0.00 0.15 0.15 92 1014.0
20260510075505 73 187 0.0 1.0 0.00 0.15 0.15 92 1013.9
20260510075005 73 187 0.0 1.0 0.00 0.15 0.15 92 1013.8
20260510074517 73 187 0.0 1.0 0.00 0.15 0.15 92 1013.8
20260510074007 73 187 0.0 1.0 0.00 0.15 0.15 92 1013.9
20260510073511 74 187 0.0 1.0 0.00 0.15 0.15 92 1014.0
20260510073020 74 187 0.0 1.0 0.00 0.15 0.15 92 1013.9
20260510072512 74 186 0.0 0.0 0.00 0.15 0.15 92 1014.0
20260510072009 74 186 0.0 1.0 0.00 0.15 0.15 92 1014.1
20260510071505 74 186 0.0 1.0 0.00 0.15 0.15 92 1014.3
20260510071003 74 186 1.0 1.0 0.01 0.15 0.15 92 1014.3
20260510070503 74 186 0.0 1.0 0.03 0.15 0.15 91 1014.4
20260510070011 74 186 0.0 1.0 0.08 0.15 0.15 91 1014.3
20260510065503 74 186 0.0 1.0 0.13 0.15 0.15 91 1014.3
20260510065003 74 186 0.0 1.0 0.13 0.15 0.15 91 1014.2
20260510064512 74 186 0.0 1.0 0.13 0.15 0.15 91 1014.3
20260510064005 74 186 0.0 1.0 0.15 0.15 0.15 91 1014.4
20260510063507 74 186 0.0 1.0 0.15 0.15 0.15 90 1014.4
20260510063022 74 186 0.0 1.0 0.15 0.15 0.15 90 1014.5
20260510062630 74 186 0.0 1.0 0.15 0.15 0.15 90 1014.6
20260510062015 74 194 0.0 1.0 0.15 0.15 0.15 90 1014.7
20260510061526 75 194 0.0 1.0 0.15 0.15 0.15 89 1014.7
20260510061009 75 194 0.0 2.0 0.14 0.14 0.14 89 1014.9
20260510060508 75 194 0.0 2.0 0.12 0.12 0.12 88 1015.1
20260510060004 75 192 0.0 1.0 0.07 0.07 0.07 87 1015.2
20260510055503 75 192 0.0 3.0 0.02 0.02 0.02 86 1015.3
20260510055003 76 192 0.0 3.0 0.02 0.02 0.02 85 1015.2
20260510054515 76 190 1.0 4.0 0.02 0.02 0.02 84 1015.2
20260510054007 76 192 0.0 4.0 0.00 0.00 0.00 83 1015.3
20260510053505 76 194 0.0 2.0 0.00 0.00 0.00 82 1015.4
20260510053016 76 189 0.0 2.0 0.00 0.00 0.00 82 1015.3
20260510052509 76 189 0.0 2.0 0.00 0.00 0.00 82 1015.3
20260510052012 77 188 0.0 1.0 0.00 0.00 0.00 81 1015.4
20260510051523 77 188 0.0 1.0 0.00 0.00 0.00 81 1015.4
20260510051007 77 188 0.0 2.0 0.00 0.00 0.00 81 1015.5
20260510050508 77 187 0.0 2.0 0.00 0.00 0.00 81 1015.6
20260510050024 77 187 0.0 3.0 0.00 0.00 0.00 81 1015.6
20260510045509 77 183 1.0 3.0 0.00 0.00 0.00 81 1015.4
20260510045010 77 183 1.0 2.0 0.00 0.00 0.00 81 1015.5
20260510044519 77 190 0.0 1.0 0.00 0.00 0.00 81 1015.6
20260510044003 77 190 0.0 0.0 0.00 0.00 0.00 81 1015.5
20260510043502 77 190 0.0 0.0 0.00 0.00 0.00 81 1015.5
20260510043012 77 190 0.0 1.0 0.00 0.00 0.00 81 1015.6
20260510042504 77 190 0.0 1.0 0.00 0.00 0.00 81 1015.7
20260510042003 77 190 0.0 1.0 0.00 0.00 0.00 81 1015.6
20260510041516 77 190 0.0 1.0 0.00 0.00 0.00 81 1015.6
20260510041007 77 190 0.0 1.0 0.00 0.00 0.00 81 1015.6
20260510040506 77 190 0.0 1.0 0.00 0.00 0.00 81 1015.5
20260510040033 77 190 0.0 1.0 0.00 0.00 0.00 81 1015.5
20260510035508 77 190 0.0 1.0 0.00 0.00 0.00 81 1015.5
20260510035008 77 190 0.0 1.0 0.00 0.00 0.00 81 1015.4
20260510034522 77 190 0.0 1.0 0.00 0.00 0.00 81 1015.4
20260510034008 77 187 0.0 1.0 0.00 0.00 0.00 80 1015.4
20260510033511 77 187 0.0 1.0 0.00 0.00 0.00 80 1015.3
20260510033046 77 187 0.0 1.0 0.00 0.00 0.00 79 1015.3
20260510032504 77 187 0.0 1.0 0.00 0.00 0.00 79 1015.4
20260510032006 78 187 0.0 1.0 0.00 0.00 0.00 79 1015.3
20260510031512 78 187 0.0 1.0 0.00 0.00 0.00 79 1015.4
20260510031004 78 187 0.0 2.0 0.00 0.00 0.00 78 1015.3
20260510030506 78 183 0.0 2.0 0.00 0.00 0.00 78 1015.3
20260510030018 78 183 1.0 2.0 0.00 0.00 0.00 78 1015.4
20260510025508 78 186 0.0 1.0 0.00 0.00 0.00 77 1015.4
20260510025008 78 186 0.0 1.0 0.00 0.00 0.00 77 1015.3
20260510024522 78 186 0.0 1.0 0.00 0.00 0.00 77 1015.4
20260510024008 78 186 0.0 2.0 0.00 0.00 0.00 77 1015.3
20260510023509 78 182 0.0 2.0 0.00 0.00 0.00 76 1015.3
20260510023024 79 182 0.0 2.0 0.00 0.00 0.00 76 1015.2
20260510022510 79 180 1.0 3.0 0.00 0.00 0.00 77 1015.3
20260510022010 79 174 1.0 3.0 0.00 0.00 0.00 77 1015.3
20260510021527 79 184 1.0 4.0 0.00 0.00 0.00 76 1015.2
20260510021005 79 183 0.0 4.0 0.00 0.00 0.00 77 1015.1
20260510020505 79 245 1.0 3.0 0.00 0.00 0.00 77 1015.1
20260510020019 79 229 2.0 3.0 0.00 0.00 0.00 77 1015.0
20260510015504 79 226 2.0 3.0 0.00 0.00 0.00 75 1015.0
20260510015012 79 232 1.0 3.0 0.00 0.00 0.00 75 1014.7
20260510014518 80 246 1.0 4.0 0.00 0.00 0.00 74 1014.6
20260510014008 80 232 2.0 4.0 0.00 0.00 0.00 74 1014.6
20260510013508 80 231 2.0 4.0 0.00 0.00 0.00 74 1014.7
20260510013024 80 248 2.0 5.0 0.00 0.00 0.00 73 1014.5
20260510012504 80 235 2.0 5.0 0.00 0.00 0.00 74 1014.3
20260510012003 80 280 2.0 5.0 0.00 0.00 0.00 72 1014.2
20260510011513 80 226 2.0 4.0 0.00 0.00 0.00 73 1014.4
20260510011004 80 253 2.0 4.0 0.00 0.00 0.00 72 1014.3
20260510010503 80 234 2.0 4.0 0.00 0.00 0.00 71 1014.2
20260510010011 81 227 2.0 4.0 0.00 0.00 0.00 70 1014.2
20260510005504 81 244 3.0 4.0 0.00 0.00 0.00 70 1014.2
20260510005004 81 220 2.0 6.0 0.00 0.00 0.00 69 1014.2
20260510004516 81 230 2.0 6.0 0.00 0.00 0.00 68 1014.0
20260510004004 81 230 2.0 7.0 0.00 0.00 0.00 67 1013.9
20260510003508 82 322 3.0 7.0 0.00 0.00 0.00 67 1013.8
20260510003020 82 19 4.0 7.0 0.00 0.00 0.00 66 1013.9
20260510002507 82 279 4.0 7.0 0.00 0.00 0.00 66 1013.8
20260510002006 82 300 1.0 7.0 0.00 0.00 0.00 65 1013.6
20260510001521 82 336 4.0 7.0 0.00 0.00 0.00 64 1013.5
20260510001009 82 254 3.0 7.0 0.00 0.00 0.00 63 1013.6
20260510000504 83 241 4.0 9.0 0.00 0.00 0.00 62 1013.6
20260510000015 83 265 5.0 9.0 0.00 0.00 0.00 61 1013.5
20260509235503 83 268 3.0 7.0 0.00 0.00 0.00 60 1013.3
20260509235005 83 265 3.0 7.0 0.00 0.00 0.00 59 1013.2
20260509234520 84 282 4.0 8.0 0.00 0.00 0.00 58 1013.3
20260509234006 84 286 4.0 8.0 0.00 0.00 0.00 56 1013.3
20260509233506 84 262 3.0 7.0 0.00 0.00 0.00 55 1013.1
20260509233018 85 249 3.0 9.0 0.00 0.00 0.00 54 1013.0
20260509232504 85 249 2.0 9.0 0.00 0.00 0.00 53 1013.0
20260509232008 85 236 5.0 9.0 0.00 0.00 0.00 52 1012.9
20260509231521 85 270 4.0 7.0 0.00 0.00 0.00 50 1012.9
20260509231008 86 260 4.0 9.0 0.00 0.00 0.00 51 1012.9
20260509230506 86 253 4.0 11.0 0.00 0.00 0.00 50 1012.9
20260509230024 86 301 4.0 11.0 0.00 0.00 0.00 50 1012.8
20260509225507 87 308 4.0 10.0 0.00 0.00 0.00 50 1012.8
20260509225002 87 206 4.0 8.0 0.00 0.00 0.00 52 1012.8
20260509224509 87 222 4.0 8.0 0.00 0.00 0.00 51 1012.6
20260509224003 87 211 3.0 11.0 0.00 0.00 0.00 51 1012.6
20260509223504 87 221 5.0 11.0 0.00 0.00 0.00 50 1012.7
20260509223013 87 225 7.0 11.0 0.00 0.00 0.00 48 1012.5
20260509222505 88 213 6.0 10.0 0.00 0.00 0.00 47 1012.4
20260509222008 88 217 5.0 10.0 0.00 0.00 0.00 46 1012.5
20260509221519 88 234 4.0 12.0 0.00 0.00 0.00 47 1012.4
20260509221008 88 218 4.0 12.0 0.00 0.00 0.00 47 1012.5
20260509220508 89 218 5.0 12.0 0.00 0.00 0.00 47 1012.4
20260509220023 89 228 5.0 10.0 0.00 0.00 0.00 48 1012.4
20260509215510 89 214 4.0 10.0 0.00 0.00 0.00 48 1012.3
20260509215008 89 224 5.0 10.0 0.00 0.00 0.00 48 1012.4
20260509214524 90 272 5.0 11.0 0.00 0.00 0.00 48 1012.3
20260509214010 90 237 5.0 11.0 0.00 0.00 0.00 47 1012.2
20260509213504 90 249 3.0 9.0 0.00 0.00 0.00 48 1012.1
20260509213011 90 324 5.0 10.0 0.00 0.00 0.00 49 1012.1
20260509212503 91 229 6.0 10.0 0.00 0.00 0.00 46 1012.1
20260509212013 90 220 6.0 9.0 0.00 0.00 0.00 46 1012.0
20260509211515 91 232 5.0 10.0 0.00 0.00 0.00 46 1011.9
20260509211004 90 224 5.0 11.0 0.00 0.00 0.00 48 1012.0
20260509210510 90 253 5.0 15.0 0.00 0.00 0.00 47 1012.0
20260509210021 90 252 5.0 15.0 0.00 0.00 0.00 47 1011.9
20260509205507 91 229 8.0 15.0 0.00 0.00 0.00 46 1011.7
20260509205007 91 234 4.0 11.0 0.00 0.00 0.00 48 1011.8